Date String (YYYY-MM-DD hh:mm:ss) UTC,Instrument flags,Ambient pressure (hPa),Sample flow (lpm),Bypass flow (lpm),Sample temperature (°C),Ambient temperature (°C),ASC tube jacket temperature (°C),LED temperature (°C),Box temperature (°C),Sample RH (%),Span deviation,Mass concentration (μg/m³),Mass concentration (μg/m³),Mass concentration (μg/m³)
DateTimeUTC,F1_M11,P_M11,Q1_M11,Q2_M11,T1_M11,T2_M11,T3_M11,T4_M11,T5_M11,U1_M11,ZSPAN_M11,X2_M11,X0_M11,X1_M11
2022-12-02 07:00:00,,0810.2,5.00,0.00,23.3,21.4,00.0,32.4,25.0,10.6,0000.0,0001.16,0018.31,0000.44
2022-12-02 07:01:00,,0810.1,5.00,0.00,23.3,21.4,00.0,32.4,25.0,10.7,0000.0,0001.67,0037.91,0000.48
2022-12-02 07:02:00,,0810.3,5.00,0.00,23.3,21.4,00.0,32.4,24.9,10.5,0000.0,0002.15,0055.93,0000.52
2022-12-02 07:03:00,,0810.2,4.99,0.00,23.2,21.4,00.0,32.3,24.9,10.6,0000.0,0002.10,0055.52,0000.52
2022-12-02 07:04:00,,0810.2,4.99,0.00,23.2,21.3,00.0,32.3,24.9,10.6,0000.0,0002.13,0055.23,0000.52
2022-12-02 07:05:00,,0810.1,5.00,0.00,23.2,21.3,00.0,32.3,24.8,10.7,0000.0,0002.10,0054.13,0000.52
2022-12-02 07:06:00,,0810.2,5.00,0.00,23.1,21.3,00.0,32.3,24.8,10.5,0000.0,0002.02,0052.59,0000.53
2022-12-02 07:07:00,,0810.1,5.01,0.00,23.1,21.3,00.0,32.2,24.8,10.5,0000.0,0001.90,0047.52,0000.52
2022-12-02 07:08:00,,0810.2,5.00,0.00,23.1,21.2,00.0,32.2,24.8,10.6,0000.0,0001.88,0048.60,0000.52
2022-12-02 07:09:00,,0810.2,5.02,0.00,23.1,21.2,00.0,32.2,24.7,10.9,0000.0,0001.92,0048.77,0000.53
2022-12-02 07:10:00,,0810.1,5.00,0.00,23.1,21.2,00.0,32.2,24.7,11.0,0000.0,0001.98,0049.87,0000.52
2022-12-02 07:11:00,,0810.2,4.99,0.00,23.0,21.2,00.0,32.2,24.8,10.8,0000.0,0002.05,0050.27,0000.53
2022-12-02 07:12:00,,0810.2,5.00,0.00,23.0,21.2,00.0,32.1,24.7,10.7,0000.0,0001.87,0041.56,0000.52
2022-12-02 07:13:00,,0810.1,5.00,0.00,23.0,21.2,00.0,32.1,24.7,10.8,0000.0,0001.04,0008.62,0000.46
2022-12-02 07:14:00,,0810.1,5.00,0.00,23.0,21.1,00.0,32.1,24.7,10.9,0000.0,0001.04,0008.69,0000.46
2022-12-02 07:15:00,,0810.1,5.00,0.00,23.0,21.1,00.0,32.1,24.7,10.9,0000.0,0001.04,0008.70,0000.47
2022-12-02 07:16:00,,0810.1,5.01,0.00,22.9,21.1,00.0,32.1,24.6,11.3,0000.0,0001.09,0008.79,0000.46
2022-12-02 07:17:00,,0810.0,5.00,0.00,22.9,21.1,00.0,32.0,24.6,11.2,0000.0,0001.09,0008.32,0000.46
2022-12-02 07:18:00,,0810.0,4.98,0.00,22.9,21.1,00.0,32.0,24.6,11.0,0000.0,0001.09,0008.38,0000.45
2022-12-02 07:19:00,,0809.6,5.00,0.00,22.9,21.0,00.0,32.0,24.6,11.0,0000.0,0001.07,0008.79,0000.46
2022-12-02 07:20:00,,0809.9,5.01,0.00,22.8,21.0,00.0,32.0,24.5,11.0,0000.0,0001.10,0010.47,0000.46
2022-12-02 07:21:00,,0809.6,5.01,0.00,22.8,21.0,00.0,31.9,24.5,11.2,0000.0,0001.13,0012.69,0000.47
2022-12-02 07:22:00,,0809.7,4.99,0.00,22.8,20.9,00.0,31.9,24.5,11.0,0000.0,0001.13,0012.45,0000.46
2022-12-02 07:23:00,,0809.9,4.99,0.00,22.8,20.8,00.0,31.9,24.4,11.1,0000.0,0001.20,0012.69,0000.46
2022-12-02 07:24:00,,0809.9,5.02,0.00,22.7,20.8,00.0,31.9,24.4,11.1,0000.0,0001.53,0022.76,0000.48
2022-12-02 07:25:00,,0809.9,5.00,0.00,22.7,20.8,00.0,31.9,24.4,11.0,0000.0,0001.60,0023.65,0000.49
2022-12-02 07:26:00,,0809.8,5.00,0.00,22.7,20.8,00.0,31.8,24.4,11.2,0000.0,0001.58,0023.72,0000.49
2022-12-02 07:27:00,,0809.8,5.00,0.00,22.7,20.8,00.0,31.8,24.4,11.1,0000.0,0001.63,0024.63,0000.49
2022-12-02 07:28:00,,0809.7,5.00,0.00,22.7,20.8,00.0,31.8,24.4,11.1,0000.0,0001.70,0026.40,0000.49
2022-12-02 07:29:00,,0809.8,4.99,0.00,22.6,20.7,00.0,31.8,24.3,11.0,0000.0,0001.68,0027.47,0000.49
2022-12-02 07:30:00,,0809.7,5.00,0.00,22.6,20.7,00.0,31.7,24.3,11.2,0000.0,0001.70,0026.33,0000.49
2022-12-02 07:31:00,,0809.6,5.00,0.00,22.6,20.7,00.0,31.7,24.3,11.1,0000.0,0001.70,0024.87,0000.48
2022-12-02 07:32:00,,0809.6,5.01,0.00,22.6,20.7,00.0,31.7,24.3,11.1,0000.0,0001.69,0021.74,0000.48
2022-12-02 07:33:00,,0809.5,5.00,0.00,22.6,20.7,00.0,31.7,24.3,11.1,0000.0,0001.73,0023.19,0000.47
2022-12-02 07:34:00,,0809.6,4.99,0.00,22.5,20.6,00.0,31.7,24.2,11.2,0000.0,0001.68,0023.06,0000.47
2022-12-02 07:35:00,,0809.4,5.00,0.00,22.5,20.6,00.0,31.6,24.2,11.4,0000.0,0001.47,0014.35,0000.46
2022-12-02 07:36:00,,0809.4,5.01,0.00,22.5,20.6,00.0,31.6,24.2,11.4,0000.0,0001.37,0011.81,0000.46
2022-12-02 07:37:00,,0809.6,5.00,0.00,22.5,20.6,00.0,31.6,24.1,11.4,0000.0,0001.41,0012.63,0000.46
2022-12-02 07:38:00,,0809.5,5.00,0.00,22.4,20.6,00.0,31.6,24.1,11.5,0000.0,0001.37,0011.71,0000.46
2022-12-02 07:39:00,,0809.6,5.00,0.00,22.4,20.6,00.0,31.5,24.1,11.4,0000.0,0001.35,0009.93,0000.46
2022-12-02 07:40:00,,0809.6,5.00,0.00,22.4,20.6,00.0,31.5,24.1,11.7,0000.0,0001.42,0008.84,0000.46
2022-12-02 07:41:00,,0809.7,4.99,0.00,22.4,20.6,00.0,31.5,24.0,11.8,0000.0,0001.41,0008.66,0000.46
2022-12-02 07:42:00,,0809.4,5.00,0.00,22.3,20.6,00.0,31.5,24.0,11.8,0000.0,0001.35,0008.60,0000.45
2022-12-02 07:43:00,,0809.5,5.00,0.00,22.3,20.6,00.0,31.5,24.0,11.8,0000.0,0001.27,0007.27,0000.45
2022-12-02 07:44:00,,0809.5,5.00,0.00,22.3,20.6,00.0,31.4,24.0,11.9,0000.0,0001.18,0004.90,0000.45
2022-12-02 07:45:00,,0809.4,5.00,0.00,22.3,20.6,00.0,31.4,24.0,11.8,0000.0,0001.18,0005.42,0000.45
2022-12-02 07:46:00,,0809.3,4.99,0.00,22.3,20.6,00.0,31.4,24.0,11.7,0000.0,0001.08,0005.54,0000.44
2022-12-02 07:47:00,,0809.3,4.99,0.00,22.3,20.5,00.0,31.4,24.0,11.6,0000.0,0001.05,0005.47,0000.43
2022-12-02 07:48:00,,0809.5,5.00,0.00,22.3,20.5,00.0,31.4,24.0,11.8,0000.0,0000.99,0003.60,0000.43
2022-12-02 07:49:00,,0809.5,5.01,0.00,22.2,20.5,00.0,31.4,23.9,11.8,0000.0,0000.97,0003.39,0000.44
2022-12-02 07:50:00,,0809.4,5.00,0.00,22.2,20.5,00.0,31.4,23.9,11.9,0000.0,0000.94,0003.28,0000.44
2022-12-02 07:51:00,,0809.4,5.01,0.00,22.2,20.4,00.0,31.3,23.9,11.8,0000.0,0000.87,0002.97,0000.44
2022-12-02 07:52:00,,0809.4,5.01,0.00,22.2,20.4,00.0,31.3,23.9,11.8,0000.0,0000.87,0002.53,0000.45
2022-12-02 07:53:00,,0809.2,4.99,0.00,22.2,20.4,00.0,31.3,23.8,11.9,0000.0,0000.91,0002.59,0000.45
2022-12-02 07:54:00,,0809.4,4.99,0.00,22.1,20.4,00.0,31.3,23.8,11.7,0000.0,0000.92,0003.12,0000.45
2022-12-02 07:55:00,,0809.6,5.00,0.00,22.1,20.4,00.0,31.3,23.8,11.8,0000.0,0000.92,0003.25,0000.45
2022-12-02 07:56:00,,0809.3,5.00,0.00,22.1,20.4,00.0,31.2,23.8,12.2,0000.0,0000.91,0002.84,0000.44
2022-12-02 07:57:00,,0809.6,5.01,0.00,22.1,20.4,00.0,31.2,23.8,11.8,0000.0,0000.97,0002.52,0000.45
2022-12-02 07:58:00,,0809.4,5.00,0.00,22.1,20.4,00.0,31.2,23.8,12.0,0000.0,0000.99,0002.52,0000.46
2022-12-02 07:59:00,,0809.6,5.00,0.00,22.1,20.4,00.0,31.2,23.8,11.9,0000.0,0000.98,0003.35,0000.45
